Location: Hysolar-Haus
(48.7436°N, 9.0965°E)
Time: 13:56:34
(UTC+00:00)

Transit 2A Rocket - All Passes

Search period start: 15 November 2019 00:00
Search period end: 25 November 2019 00:00
Orbit: 594 x 909 km, 66.7° (Epoch: 14 November)

Date Brightness Start Highest point End Pass type
(mag) Time Alt. Az. Time Alt. Az. Time Alt. Az.
15 Nov - 00:29:49 10° WNW 00:32:31 15° NNW 00:35:10 10° N night (unlit)
15 Nov - 04:00:32 10° N 04:01:52 11° NNE 04:03:12 10° NE visible
15 Nov - 05:41:32 10° NNW 05:45:36 39° NE 05:49:48 10° ESE visible
15 Nov - 07:24:15 10° NW 07:28:02 29° WSW 07:31:56 10° S daylight
15 Nov - 20:23:53 10° ESE 20:24:47 10° ESE 20:25:42 10° E night (unlit)
15 Nov - 22:01:52 10° SSW 22:06:38 76° ESE 22:11:05 10° NE night (unlit)
15 Nov - 23:46:06 10° W 23:49:37 21° NW 23:53:01 10° NNE night (unlit)
16 Nov - 04:59:13 10° NNW 05:02:53 26° NE 05:06:37 10° E visible
16 Nov - 06:41:25 10° NW 06:45:38 51° WSW 06:50:02 10° SSE daylight
16 Nov - 21:19:39 10° S 21:24:10 44° ESE 21:28:25 10° NE night (unlit)
16 Nov - 23:02:43 10° WSW 23:06:50 30° NW 23:10:46 10° NNE night (unlit)
17 Nov - 04:17:00 10° N 04:20:03 18° NE 04:23:07 10° E visible
17 Nov - 05:58:49 10° NW 06:03:10 89° SW 06:07:41 10° SSE visible
17 Nov - 07:43:24 10° W 07:45:03 12° WSW 07:46:42 10° SW daylight
17 Nov - 20:37:52 10° S 20:41:48 26° ESE 20:45:32 10° ENE night (unlit)
17 Nov - 22:19:37 10° WSW 22:24:08 47° NW 22:28:25 10° NNE night (unlit)
18 Nov - 00:05:45 10° NW 00:07:44 13° NNW 00:09:41 10° N night (unlit)
18 Nov - 03:34:57 10° N 03:37:07 13° NNE 03:39:17 10° ENE visible
18 Nov - 05:16:20 10° NNW 05:20:36 54° NE 05:25:01 10° SE visible
18 Nov - 06:59:31 10° WNW 07:02:48 21° WSW 07:06:12 10° SSW daylight
18 Nov - 19:56:46 10° SE 19:59:31 15° ESE 20:02:10 10° ENE night (unlit)
18 Nov - 21:36:49 10° SW 21:41:33 78° NW 21:45:59 10° NNE night (unlit)
18 Nov - 23:21:47 10° WNW 23:24:46 17° NNW 23:27:41 10° N night (unlit)
19 Nov - 02:53:28 10° NNE 02:54:04 10° NNE 02:54:41 10° NNE visible
19 Nov - 04:33:58 10° NNW 04:37:57 34° NE 04:42:01 10° ESE visible
19 Nov - 06:16:29 10° NW 06:20:29 36° WSW 06:24:37 10° S daylight
19 Nov - 20:54:22 10° SSW 20:59:02 63° ESE 21:03:26 10° NE night (unlit)
19 Nov - 22:38:12 10° W 22:41:55 24° NW 22:45:29 10° NNE night (unlit)
20 Nov - 03:51:42 10° NNW 03:55:11 23° NE 03:58:44 10° E visible
20 Nov - 05:33:45 10° NW 05:38:03 63° WSW 05:42:32 10° SSE visible
20 Nov - 20:12:17 10° S 20:16:37 36° ESE 20:20:42 10° NE night (unlit)
20 Nov - 21:54:54 10° WSW 21:59:10 35° NW 22:03:12 10° NNE night (unlit)
20 Nov - 23:42:04 10° NNW 23:42:59 11° NNW 23:43:54 10° N night (unlit)
21 Nov - 03:09:31 10° N 03:12:18 16° NNE 03:15:07 10° ENE visible
21 Nov - 04:51:12 10° NNW 04:55:33 76° NE 05:00:05 10° SE visible
21 Nov - 06:35:06 10° WNW 06:37:33 15° WSW 06:40:03 10° SW daylight
21 Nov - 19:30:42 10° SSE 19:34:16 22° ESE 19:37:41 10° ENE night (unlit)
21 Nov - 21:11:55 10° SW 21:16:30 55° NW 21:20:49 10° NNE night (unlit)
21 Nov - 22:57:38 10° WNW 22:59:57 14° NNW 23:02:16 10° N night (unlit)
22 Nov - 02:27:33 10° N 02:29:20 12° NNE 02:31:08 10° NE visible
22 Nov - 04:08:46 10° NNW 04:12:57 46° NE 04:17:17 10° ESE visible
22 Nov - 05:51:40 10° WNW 05:55:16 25° WSW 05:59:01 10° SSW visible
22 Nov - 18:50:05 10° SE 18:52:01 12° ESE 18:53:55 10° E night (unlit)
22 Nov - 20:29:14 10° SSW 20:33:56 89° ESE 20:38:21 10° NE night (unlit)
22 Nov - 22:13:49 10° W 22:17:02 19° NW 22:20:11 10° NNE night (unlit)
23 Nov - 03:26:26 10° NNW 03:30:15 29° NE 03:34:12 10° ESE visible
23 Nov - 05:08:46 10° NW 05:12:54 43° WSW 05:17:14 10° S visible
23 Nov - 19:46:54 10° SSW 19:51:28 52° ESE 19:55:45 10° NE night (unlit)
23 Nov - 21:30:19 10° W 21:34:13 27° NW 21:37:57 10° NNE night (unlit)
24 Nov - 02:44:11 10° NNW 02:47:27 20° NE 02:50:48 10° E visible
24 Nov - 04:26:06 10° NW 04:30:28 76° WSW 04:35:02 10° SSE visible
24 Nov - 19:04:58 10° S 19:09:03 30° ESE 19:12:56 10° NE night (unlit)
24 Nov - 20:47:08 10° WSW 20:51:29 40° NW 20:55:38 10° NNE night (unlit)
24 Nov - 22:33:43 10° NW 22:35:12 11° NNW 22:36:42 10° N night (unlit)
